Weather History for Prairie Du Chien, WI

Change the Weather History Date:

Thursday, January 17, 2013

  Actual Average Record
Temperature  
Mean Temperature 22 °F -  
Max Temperature 30 °F 27 °F 49 °F (1974)
Min Temperature 15 °F 8 °F -29 °F (1977)
Degree Days  
Heating Degree Days 42    
Moisture  
Dew Point 9 °F    
Average Humidity 58    
Maximum Humidity 86    
Minimum Humidity 40    
Precipitation  
Precipitation 0.00 in - - ()
Sea Level Pressure  
Sea Level Pressure 30.33 in    
Wind  
Wind Speed 8 mph (WNW)    
Max Wind Speed 14 mph    
Max Gust Speed 17 mph    
Visibility 10 miles    
Events      
Averages and records for this station are not official NWS values.
T = Trace of Precipitation, MM = Missing Value Source: NWS Daily Summary

Daily Weather History Graph

Daily Weather History Graph

Search for Another Location

Airport:

Trip Planner

Search our weather history database for the weather conditions in past years. The results will help you decide how hot, cold, wet, or windy it might be!

Date:

Astronomy

Jan. 17, 2013 Rise Set
Actual Time 7:31 AM CST 4:58 PM CST
Civil Twilight 7:00 AM CST 5:29 PM CST
Nautical Twilight 6:25 AM CST 6:04 PM CST
Astronomical Twilight 5:51 AM CST 6:38 PM CST
Moon 10:27 AM CST (1/17) No Moon Set
Length of Visible Light 10h 28m
Length of Day
9h 26m
Waxing Crescent, 38% of the Moon is Illuminated
Jan 17
Waxing Crescent
Jan 18
First Quarter
Jan 26
Full
Feb 3
Last Quarter
Feb 10
New

Hourly Weather History & Observations

Time (CST) Temp. Windchill Dew Point Humidity Pressure Visibility Wind Dir Wind Speed Gust Speed Precip Events Conditions
12:15 AM 28.4 °F 19.1 °F 19.4 °F 69% 30.14 in 10.0 mi NW 10.4 mph - N/A   Clear
12:35 AM 26.6 °F 15.7 °F 19.4 °F 74% 30.16 in 10.0 mi NW 12.7 mph - N/A   Clear
12:55 AM 26.6 °F 15.7 °F 17.6 °F 69% 30.16 in 10.0 mi NW 12.7 mph 16.1 mph N/A   Clear
1:15 AM 24.8 °F 14.6 °F 12.2 °F 59% 30.18 in 10.0 mi NNW 10.4 mph 17.3 mph N/A   Clear
1:35 AM 24.8 °F 16.1 °F 10.4 °F 54% 30.20 in 10.0 mi NW 8.1 mph - N/A   Clear
1:55 AM 24.8 °F 16.9 °F 10.4 °F 54% 30.20 in 10.0 mi NW 6.9 mph - N/A   Clear
2:15 AM 23.0 °F 17.0 °F 12.2 °F 63% 30.22 in 10.0 mi NNW 4.6 mph - N/A   Clear
2:35 AM 23.0 °F 15.8 °F 10.4 °F 59% 30.23 in 10.0 mi NW 5.8 mph - N/A   Clear
2:55 AM 23.0 °F 13.9 °F 10.4 °F 59% 30.24 in 10.0 mi NW 8.1 mph - N/A   Clear
3:35 AM 21.2 °F 9.5 °F 6.8 °F 54% 30.27 in 10.0 mi NW 11.5 mph - N/A   Clear
3:55 AM 21.2 °F 11.7 °F 5.0 °F 50% 30.27 in 10.0 mi NW 8.1 mph - N/A   Clear
4:15 AM 21.2 °F 14.9 °F 5.0 °F 50% 30.28 in 10.0 mi NW 4.6 mph - N/A   Clear
4:35 AM 19.4 °F 8.6 °F 5.0 °F 54% 30.28 in 10.0 mi NW 9.2 mph - N/A   Clear
4:55 AM 19.4 °F 9.5 °F 5.0 °F 54% 30.29 in 10.0 mi NW 8.1 mph - N/A   Clear
5:15 AM 19.4 °F 10.4 °F 3.2 °F 49% 30.29 in 10.0 mi NW 6.9 mph - N/A   Clear
5:35 AM 19.4 °F 10.4 °F 3.2 °F 49% 30.29 in 10.0 mi WNW 6.9 mph - N/A   Clear
6:15 AM 17.6 °F 10.7 °F 5.0 °F 58% 30.31 in 10.0 mi West 4.6 mph - N/A   Clear
6:35 AM 17.6 °F 5.7 °F 5.0 °F 58% 30.32 in 10.0 mi WNW 10.4 mph - N/A   Clear
6:55 AM 17.6 °F 8.2 °F 5.0 °F 58% 30.33 in 10.0 mi WNW 6.9 mph - N/A   Clear
7:15 AM 17.6 °F 5.0 °F 5.0 °F 58% 30.34 in 10.0 mi NW 11.5 mph - N/A   Clear
7:35 AM 15.8 °F 4.2 °F 5.0 °F 62% 30.35 in 10.0 mi WNW 9.2 mph - N/A   Clear
7:55 AM 15.8 °F 4.2 °F 5.0 °F 62% 30.35 in 10.0 mi WNW 9.2 mph - N/A   Clear
8:15 AM 17.6 °F 8.2 °F 5.0 °F 58% 30.37 in 10.0 mi WNW 6.9 mph - N/A   Clear
8:35 AM 17.6 °F 8.2 °F 5.0 °F 58% 30.38 in 10.0 mi WNW 6.9 mph - N/A   Clear
8:55 AM 17.6 °F 5.7 °F 5.0 °F 58% 30.39 in 10.0 mi WNW 10.4 mph - N/A   Clear
9:15 AM 17.6 °F 5.7 °F 1.4 °F 49% 30.40 in 10.0 mi NW 10.4 mph - N/A   Clear
9:35 AM 19.4 °F 8.6 °F 3.2 °F 49% 30.42 in 10.0 mi NW 9.2 mph - N/A   Scattered Clouds
9:55 AM 19.4 °F 8.6 °F 1.4 °F 46% 30.41 in 10.0 mi WNW 9.2 mph 12.7 mph N/A   Mostly Cloudy
10:15 AM 19.4 °F 9.5 °F 1.4 °F 46% 30.41 in 10.0 mi WNW 8.1 mph - N/A   Mostly Cloudy
10:35 AM 21.2 °F 13.6 °F 1.4 °F 42% 30.41 in 10.0 mi WNW 5.8 mph - N/A   Mostly Cloudy
10:55 AM 21.2 °F 11.7 °F 3.2 °F 46% 30.41 in 10.0 mi NW 8.1 mph - N/A   Scattered Clouds
11:15 AM 23.0 °F 13.1 °F 3.2 °F 43% 30.40 in 10.0 mi WNW 9.2 mph - N/A   Clear
11:35 AM 23.0 °F 13.1 °F 3.2 °F 43% 30.39 in 10.0 mi WNW 9.2 mph - N/A   Clear
11:55 AM 24.8 °F 17.9 °F 3.2 °F 40% 30.39 in 10.0 mi NW 5.8 mph - N/A   Clear
12:15 PM 24.8 °F 19.1 °F 3.2 °F 40% 30.37 in 10.0 mi WSW 4.6 mph - N/A   Scattered Clouds
12:35 PM 24.8 °F 17.9 °F 5.0 °F 43% 30.37 in 10.0 mi West 5.8 mph - N/A   Scattered Clouds
12:55 PM 26.6 °F 18.2 °F 6.8 °F 43% 30.36 in 10.0 mi West 8.1 mph - N/A   Mostly Cloudy
1:15 PM 26.6 °F 18.2 °F 8.6 °F 47% 30.35 in 10.0 mi WNW 8.1 mph - N/A   Scattered Clouds
1:35 PM 26.6 °F 15.7 °F 10.4 °F 51% 30.36 in 10.0 mi WNW 12.7 mph 17.3 mph N/A   Scattered Clouds
1:55 PM 28.4 °F 19.7 °F 10.4 °F 47% 30.35 in 10.0 mi West 9.2 mph - N/A   Mostly Cloudy
2:15 PM 28.4 °F 19.1 °F 12.2 °F 51% 30.35 in 10.0 mi West 10.4 mph - N/A   Scattered Clouds
2:35 PM 28.4 °F 21.2 °F 10.4 °F 47% 30.34 in 10.0 mi West 6.9 mph - N/A   Clear
2:55 PM 28.4 °F 19.7 °F 12.2 °F 51% 30.34 in 10.0 mi WNW 9.2 mph - N/A   Clear
3:15 PM 30.2 °F 19.8 °F 12.2 °F 47% 30.34 in 10.0 mi WNW 13.8 mph - N/A   Clear
3:35 PM 28.4 °F 19.7 °F 14.0 °F 55% 30.34 in 10.0 mi West 9.2 mph - N/A   Clear
3:55 PM 28.4 °F 18.5 °F 14.0 °F 55% 30.34 in 10.0 mi West 11.5 mph - N/A   Clear
4:55 PM 26.6 °F 16.2 °F 15.8 °F 64% 30.37 in 10.0 mi WNW 11.5 mph - N/A   Scattered Clouds
5:35 PM 24.8 °F 17.9 °F 15.8 °F 69% 30.37 in 10.0 mi West 5.8 mph - N/A   Clear
6:15 PM 24.8 °F 17.9 °F 15.8 °F 69% 30.37 in 10.0 mi West 5.8 mph - N/A   Clear
7:55 PM 23.0 °F 14.7 °F 15.8 °F 74% 30.39 in 10.0 mi WNW 6.9 mph - N/A   Clear
8:15 PM 21.2 °F 12.6 °F 15.8 °F 80% 30.39 in 10.0 mi West 6.9 mph - N/A   Clear
8:35 PM 21.2 °F 14.9 °F 15.8 °F 80% 30.38 in 10.0 mi West 4.6 mph - N/A   Clear
8:55 PM 21.2 °F 14.9 °F 15.8 °F 80% 30.38 in 10.0 mi WSW 4.6 mph - N/A   Clear
9:15 PM 19.4 °F - 14.0 °F 80% 30.39 in 10.0 mi Calm Calm - N/A   Clear
9:35 PM 19.4 °F - 14.0 °F 80% 30.38 in 10.0 mi Calm Calm - N/A   Scattered Clouds
9:55 PM 19.4 °F - 14.0 °F 80% 30.39 in 10.0 mi Calm Calm - N/A   Scattered Clouds
11:15 PM 21.2 °F - 17.6 °F 86% 30.37 in 10.0 mi Calm Calm - N/A   Overcast
11:35 PM 19.4 °F - 15.8 °F 86% 30.38 in 10.0 mi Calm Calm - N/A   Scattered Clouds
11:55 PM 19.4 °F - 15.8 °F 86% 30.37 in 10.0 mi Calm Calm - N/A   Mostly Cloudy